User: anonymous   Login
Location: Unspecified
(0.0000°N, 0.0000°E)
Time: 18:38:06
(UTC+00:00)
Language:

Alouette 2 - Orbit

View from above orbital plane
View from above orbital plane
View from above satellite
View from above satellite

Ground track
Ground track

The orbit data is extracted from the following two-line orbital elements,

1  1804U 65098A   17142.74758519 +.00000103 +00000-0 +26184-4 0  9991
2  1804 079.8013 204.1856 1344264 084.8020 290.4595 12.25273917273303
Epoch (UTC): 22 May 2017 17:56:31
Eccentricity: 0.1344264
inclination: 79.8013°
perigee height: 501 km
apogee height: 2638 km
right ascension of ascending node: 204.1856°
argument of perigee: 84.8020°
revolutions per day: 12.25273917
mean anomaly at epoch: 290.4595°
orbit number at epoch: 27330

The dashed part of the orbit path shows where the satellite is in the earth's shadow,  

DLR